Location: Alexander
(41.3564°N, 81.5960°W)
Time: 08:54:08
(UTC+00:00)

FengYun 1-2 T - Pass Details

Date: 24 January 2021
Orbit: 846 x 881 km, 98.7° (Epoch: 02 March)

Event Time Altitude Azimuth Distance (km) Brightness Sun altitude
Rises 23:08:19 0° 166° (SSE) 3,420 7.4 -7.0°
Reaches altitude 10° 23:10:40 10° 167° (SSE) 2,493 6.7 -7.4°
Maximum altitude 23:16:14 85° 256° (WSW) 877 4.4 -8.4°
Drops below altitude 10° 23:21:53 10° 345° (NNW) 2,532 6.7 -9.4°
Sets 23:24:17 0° 346° (NNW) 3,478 7.4 -9.8°
